Showing default

YAOGAN-41, 58582

Orbit data source: Space-Track

YAOGAN-41, 58582 is a Chinese payload satellite in GEO that was launched on Fri, 15 Dec 2023 UTC via a CHANG ZHENG 5 launch vehicle from the Wenchang Satellite Launch Center (WSC). Payload-class satellites include a variety of spacecraft equipped with specific instruments for various scientific and technological missions. These include communications satellites like Starlink; space stations such as the ISS; scientific satellites like the Hubble; Earth observation satellites from companies like Planet Labs, Umbra, and HawkEye 360; GPS; miniature CubeSats for education and research; and military/defense satellites.

Not visible in the next 10 days
Identifier
58582, 2023-197A
Orbit
GEO
Country
Flag of CNCN / PRC
Related business
Manufacturer
CAST
Mission
Operational Defense Imaging
Bus & Motor
YG41, Unknown motor
Mass
~12,000 kg wet, ~6,500 kg dry
Launch date (UTC)
2023-12-15 (3 years ago)
Launch vehicle
CHANG ZHENG 5
Launch site
Wenchang Satellite Launch Center (WSC)
Object type
Payload
Rocket body
Debris
Shape & HBR
Box + 2 Pan, 20.0 m
Radar Cross Section
74.541 m², Large (>1 m²)

Expand to show TLE details & history
Last TLE update: 21 hours ago

TLE from 21 hours ago
0 YAOGAN-41
1 58582U 23197A   26172.55707017 -.00000364  00000-0  00000+0 0  9993
2 58582   3.1198 313.2244 0014172 193.3438  86.8902  1.00268395  9362
Epoch: 2026-06-21T13:22Z
TLE epoch observation values (Epoch: 2026-06-21T13:22:10.862Z)
Latitude
-3.08686°
Longitude
123.33851°
Altitude
35,784.58 km
Speed
3.075 km/s
True Right ascension
15h 34m 33s
True Declination
-3° 05' 01"
Sunlit
Object was in daylight at epoch
Visualization orbit readout
Latitude
Unknown
Longitude
Unknown
Altitude
Unknown
Speed
Unknown
Apparent Right ascension
Unknown
Apparent Declination
Unknown
Sunlit
N/A
Visualization observer readout
Local Sidereal Time
21:44:38
Azimuth
Unknown
Elevation
Unknown
Doppler factor
Unknown
Orbital elements
Apogee altitude
35,848.37 km
Perigee altitude
35,728.852 km
Semi-major axis
42,166.748 km
Eccentricity
0.00142
Inclination
3.1198°
RAAN
313.2244°
Arg. of periapsis
193.3438°
True anomaly
87.05238°
Mean anomaly
86.8902°
Eccentric anomaly
86.97129°
Mean motion
0.25066 °/min
Orbital period
1,436.2 mins
BSTAR
0
Loading maneuver chart data...
Computing Atmospheric mass density...
Loading historical data...
Loading historical data...
Loading historical data...
Loading historical data...
Loading historical data...
Loading historical data...
Loading historical data...
Other satellites on launch #197 in the year 2023 (2023-12-15 UTC)

Documentation

Showing up to 5 results
|